Tampa Macdill AFB, FL

1:31 AM EST on December 16, 2017 (GMT -0500)
MacDill Air Force Base

Weather History for KMCF - November, 2012

Change the Weather History Date:

Monday, November 5, 2012

  Actual Average Record
Temperature  
Mean Temperature 72 °F -  
Max Temperature 78 °F 78 °F 89 °F (1996)
Min Temperature 63 °F 61 °F 52 °F (2010)
Cooling Degree Days 6    
Growing Degree Days 22 (Base 50)    
Moisture  
Dew Point 65 °F    
Average Humidity 84    
Maximum Humidity 100    
Minimum Humidity 54    
Precipitation  
Precipitation 0.00 in - - ()
Sea Level Pressure  
Sea Level Pressure 29.99 in    
Wind  
Wind Speed 4 mph (NW)    
Max Wind Speed 9 mph    
Max Gust Speed -    
Visibility 10 miles    
Events      
Averages and records for this station are not official NWS values.
T = Trace of Precipitation, MM = Missing Value Source: NWS Daily Summary

Daily Weather History Graph

Daily Weather History Graph

Search for Another Location

Airport or City:

Trip Planner

Search our weather history database for the weather conditions in past years. The results will help you decide how hot, cold, wet, or windy it might be!

Date:

Astronomy

Nov. 05, 2012 Rise Set
Actual Time 6:44 AM EST 5:42 PM EST
Civil Twilight 6:19 AM EST 6:07 PM EST
Nautical Twilight 5:52 AM EST 6:34 PM EST
Astronomical Twilight 5:24 AM EST 7:02 PM EST
Moon 11:18 PM EST (11/5) 12:01 PM EST (11/5)
Length of Visible Light 11h 47m
Length of Day
10h 58m
Waning Gibbous, 63% of the Moon is Illuminated
Nov 5
Waning Gibbous
Nov 6
Last Quarter
Nov 13
New
Nov 20
First Quarter
Nov 28
Full

Hourly Weather History & Observations

Time (EST) Temp. Dew Point Humidity Pressure Visibility Wind Dir Wind Speed Gust Speed Precip Events Conditions
12:55 AM 68.0 °F 68.0 °F 100% 30.03 in 10.0 mi West 4.6 mph - N/A   Clear
1:55 AM 68.7 °F 68.7 °F 100% 30.01 in 10.0 mi West 5.8 mph - N/A   Clear
2:55 AM 68.2 °F 68.2 °F 100% 30.00 in 10.0 mi West 3.5 mph - N/A   Clear
3:55 AM 68.4 °F 68.4 °F 100% 30.00 in 10.0 mi NW 3.5 mph - N/A   Clear
4:55 AM 67.6 °F 67.6 °F 100% 30.00 in 10.0 mi NW 3.5 mph - N/A   Clear
5:55 AM 68.0 °F 68.0 °F 100% 30.01 in 10.0 mi NW 5.8 mph - N/A   Clear
6:55 AM 67.6 °F 67.6 °F 100% 30.01 in 10.0 mi NW 3.5 mph - N/A   Clear
7:55 AM 69.3 °F 69.3 °F 100% 30.02 in 10.0 mi Calm Calm - N/A   Partly Cloudy
8:55 AM 75.4 °F 70.0 °F 83% 30.02 in 10.0 mi NW 4.6 mph - N/A   Scattered Clouds
9:55 AM 73.2 °F 69.1 °F 87% 30.03 in 10.0 mi North 5.8 mph - N/A   Partly Cloudy
10:55 AM 73.6 °F 66.0 °F 77% 30.03 in 10.0 mi Variable 4.6 mph - N/A   Clear
11:55 AM 75.7 °F 66.7 °F 74% 30.01 in 10.0 mi Variable 5.8 mph - N/A   Clear
12:55 PM 78.6 °F 62.4 °F 57% 29.98 in 10.0 mi NNW 6.9 mph - N/A   Partly Cloudy
1:55 PM 78.1 °F 61.0 °F 56% 29.96 in 10.0 mi NW 5.8 mph - N/A   Scattered Clouds
2:55 PM 76.5 °F 58.8 °F 54% 29.96 in 10.0 mi NNW 9.2 mph - N/A   Clear
3:55 PM 75.6 °F 59.7 °F 58% 29.96 in 10.0 mi NW 5.8 mph - N/A   Clear
4:55 PM 73.0 °F 60.6 °F 65% 29.96 in 10.0 mi NNW 3.5 mph - N/A   Clear
5:55 PM 69.6 °F 61.9 °F 76% 29.97 in 10.0 mi NNW 4.6 mph - N/A   Mostly Cloudy
6:55 PM 68.0 °F 62.4 °F 82% 29.97 in 10.0 mi Calm Calm - N/A   Mostly Cloudy
7:55 PM 67.3 °F 62.4 °F 84% 29.99 in 10.0 mi Calm Calm - N/A   Scattered Clouds
8:55 PM 65.7 °F 63.3 °F 92% 30.00 in 10.0 mi WNW 4.6 mph - N/A   Clear
9:55 PM 66.6 °F 64.0 °F 92% 30.00 in 10.0 mi NW 4.6 mph - N/A   Mostly Cloudy
10:55 PM 65.3 °F 63.9 °F 95% 29.98 in 10.0 mi NW 3.5 mph - N/A   Clear
11:55 PM 63.5 °F 62.4 °F 96% 29.95 in 10.0 mi Calm Calm - N/A   Clear